Weather History for La Junta, CO

Change the Weather History Date:

Sunday, August 3, 2014

  Actual Average Record
Temperature  
Mean Temperature 74 °F 78 °F  
Max Temperature 91 °F 92 °F 105 °F (1954)
Min Temperature 56 °F 63 °F 56 °F (1962)
Degree Days  
Heating Degree Days 0 0  
Month to date heating degree days 0 0  
Since 1 June heating degree days 5 17  
Since 1 July heating degree days 0 1  
Cooling Degree Days 9 13  
Month to date cooling degree days 23 39  
Year to date cooling degree days 862 770  
Since 1 June cooling degree days 740 697  
Growing Degree Days 24 (Base 50)    
Moisture  
Dew Point 51 °F    
Average Humidity 51    
Maximum Humidity 78    
Minimum Humidity 24    
Precipitation  
Precipitation 0.00 in 0.06 in 1.02 in (1990)
Month to date precipitation 0.00 0.18  
Year to date precipitation 8.53 7.66  
Sea Level Pressure  
Sea Level Pressure 30.00 in    
Wind  
Wind Speed 9 mph (South)    
Max Wind Speed 18 mph    
Max Gust Speed 29 mph    
Visibility 10 miles    
Events      
T = Trace of Precipitation, MM = Missing Value Source: NWS Daily Summary

Daily Weather History Graph

Daily Weather History Graph

Search for Another Location

Airport:

Trip Planner

Search our weather history database for the weather conditions in past years. The results will help you decide how hot, cold, wet, or windy it might be!

Date:

Astronomy

Aug. 03, 2014 Rise Set
Actual Time 5:58 AM MDT 8:01 PM MDT
Civil Twilight 5:29 AM MDT 8:30 PM MDT
Nautical Twilight 4:54 AM MDT 9:05 PM MDT
Astronomical Twilight 4:15 AM MDT 9:43 PM MDT
Moon 1:14 PM MDT (8/3) No Moon Set
Length of Visible Light 15h 00m
Length of Day
14h 02m
Waxing Crescent, 47% of the Moon is Illuminated
Aug 3
Waxing Crescent
Aug 3
First Quarter
Aug 10
Full
Aug 17
Last Quarter
Aug 25
New

Hourly Weather History & Observations

Time (MDT) Temp. Heat Index Dew Point Humidity Pressure Visibility Wind Dir Wind Speed Gust Speed Precip Events Conditions
12:53 AM 68.0 °F - 51.1 °F 55% 30.06 in 10.0 mi SSW 8.1 mph - N/A   Clear
2:53 AM 63.0 °F - 53.1 °F 70% 30.06 in 10.0 mi WSW 10.4 mph - N/A   Clear
3:53 AM 63.0 °F - 52.0 °F 67% 30.04 in 10.0 mi SW 10.4 mph - N/A   Clear
4:53 AM 61.0 °F - 51.1 °F 70% 30.04 in 10.0 mi SW 6.9 mph - N/A   Clear
5:53 AM 59.0 °F - 52.0 °F 78% 30.06 in 10.0 mi Calm Calm - N/A   Clear
6:53 AM 61.0 °F - 54.0 °F 78% 30.06 in 10.0 mi Calm Calm - N/A   Clear
7:53 AM 66.9 °F - 53.1 °F 61% 30.06 in 10.0 mi SSE 6.9 mph - N/A   Clear
8:53 AM 71.1 °F - 54.0 °F 55% 30.06 in 10.0 mi South 8.1 mph - N/A   Clear
9:53 AM 79.0 °F - 54.0 °F 42% 30.04 in 10.0 mi South 8.1 mph - N/A   Clear
10:53 AM 81.0 °F 80.4 °F 53.1 °F 38% 30.03 in 10.0 mi Variable 4.6 mph - N/A   Clear
11:53 AM 84.9 °F - 50.0 °F 30% 30.00 in 10.0 mi South 11.5 mph - N/A   Clear
12:53 PM 87.1 °F - 50.0 °F 28% 29.98 in 10.0 mi South 10.4 mph 18.4 mph N/A   Clear
1:53 PM 87.1 °F - 50.0 °F 28% 29.97 in 10.0 mi SE 9.2 mph - N/A   Partly Cloudy
2:53 PM 90.0 °F - 50.0 °F 25% 29.95 in 10.0 mi South 10.4 mph - N/A   Partly Cloudy
3:53 PM 90.0 °F - 48.9 °F 24% 29.92 in 10.0 mi SSE 17.3 mph 23.0 mph N/A   Scattered Clouds
4:53 PM 90.0 °F - 48.9 °F 24% 29.92 in 10.0 mi South 15.0 mph - N/A   Partly Cloudy
5:53 PM 89.1 °F - 50.0 °F 26% 29.91 in 10.0 mi SSE 16.1 mph - N/A   Clear
6:53 PM 86.0 °F - 50.0 °F 29% 29.91 in 10.0 mi SSE 10.4 mph - N/A   Clear
8:53 PM 75.0 °F - 51.1 °F 43% 29.94 in 10.0 mi SE 9.2 mph - N/A   Clear
9:53 PM 77.0 °F - 48.0 °F 36% 29.95 in 10.0 mi SSE 12.7 mph - N/A   Clear
11:53 PM 72.0 °F - 50.0 °F 46% 29.96 in 10.0 mi SSE 8.1 mph - N/A   Clear